weather.gov     
National Weather Service

Terminal Aerodrome Forecast
NWS Homepage
This page is being discontinued on March 12, 2014.
The same data is available at this site. Please update your bookmarks.
Thank you, and we apologize for the inconvenience.
Please send an email to SR-SRH.Webmaster@noaa.gov with any concerns.


Current Version
Previous Version:    01  02  03  04  05  06  07  08  09  10  11  12  13  14  15  16  17  18  19  20  21  22  23  
[Printable]
184
FTUS45 KRIW 211700
TAFRKS
TAF
KRKS 211731Z 2118/2218 24009KT P6SM FEW060 SCT090
     FM211900 26016G24KT P6SM VCTS SCT060CB BKN090
     FM220100 28008KT P6SM VCSH FEW080 SCT110
     FM220600 VRB05KT P6SM FEW110 SCT150
     FM221600 20011KT P6SM FEW050 BKN150=


U.S. Dept. of Commerce
NOAA National Weather Service
1325 East West Highway
Silver Spring, MD 20910
E-mail: w-nws.webmaster@noaa.gov
Page last modified: May 16, 2007
NATIONAL WEATHER SERVICE: for Safety, for Work, for Fun - FOR LIFE